Lid_Strength_Index
2 1 1 1 1 1 1 1 1 1 1 1 1 1 1 1 1 1 1 1 1 1 1 1 1 1 1 1 1 1 2 2 4 3 1 1 1 2 0 1 1 1 1
1 1 1 1 1 1 1 1 1 1 1 1 1 1 1 1 1 1 1 1 1 2 1 1 1 1 2 1 1 2 2 2 3 4 2 2 1 1 1 0 1 1 2
1 2 1 2 1 1 1 1 1 1 1 1 1 1 1 1 1 1 1 1 1 1 1 1 1 1 2 1 1 2 2 1 2 3 3 2 2 1 1 1 1 2 2
2 2 2 2 1 1 1 1 1 1 1 1 1 1 1 1 1 1 1 1 1 1 1 1 1 1 1 1 1 2 1 2 2 2 3 2 3 2 3 3 2 3 4
3 3 2 1 1 1 1 1 1 1 1 1 1 1 1 1 1 1 1 1 1 1 1 1 1 1 1 1 1 1 2 2 2 3 3 3 3 3 3 2 2 2 2
2 2 2 1 1 1 1 1 1 1 1 1 1 1 1 1 3 3 2 1 1 1 2 1 1 0 1 2 3 2 1 3 3 3 3 4 3 4 2 2 3 3 4
2 2 2 2 2 2 1 1 2 2 1 1 1 1 1 1 2 3 2 2 1 1 1 1 1 1 1 1 2 3 3 3 2 1 3 3 3 3 2 2 2 3 3
2 2 2 2 2 2 2 2 2 2 2 2 2 1 1 1 3 2 3 2 1 1 1 1 1 1 1 1 1 1 1 1 2 2 2 2 1 1 1 1 1 2 3
3 2 2 2 2 2 2 2 2 2 2 2 1 1 1 1 3 3 4 2 1 1 1 1 1 1 2 3 2 2 2 1 2 4 4 3 3 3 2 1 2 3 3
3 2 2 2 2 2 2 2 2 2 2 1 2 1 2 1 3 4 5 2 2 2 2 1 3 3 5 6 3 2 3 2 2 1 2 4 4 3 3 2 1 3 3
2 2 2 1 2 2 2 2 2 2 2 2 2 2 1 1 1 4 7 2 2 2 2 2 2 6 7 7 7 3 2 3 2 2 2 2 1 1 1 2 1 1 3
2 2 2 2 2 1 2 2 2 2 3 2 2 2 1 1 3 4 6 7 5 3 3 2 3 7 7 8 6 5 6 5 2 2 2 2 2 2 2 3 3 3 3
2 2 2 2 2 2 2 2 2 2 3 3 3 3 2 2 3 8 7 7 6 3 2 4 7 8 9 8 7 7 7 4 3 3 3 3 3 3 4 5 4 5 5
2 2 2 2 2 2 2 2 2 2 3 3 3 3 3 5 5 6 3 2 4 4 5 4 3 4 4 4 4 6 5 3 3 3 3 4 4 4 5 5 5 5 6
2 2 2 2 2 2 2 3 2 3 3 3 3 3 3 3 6 9 8 6 7 8 8 4 4 3 2 2 2 2 1 2 2 3 3 3 6 6 6 5 5 6 7
3 3 3 3 2 2 3 4 10 9 10 9 9 5 7 8 10 10 11 11 10 10 6 4 4 3 3 3 2 2 3 3 4 4 4 5 6 6 6 6 5 6 7
3 3 3 3 3 3 3 3 4 5 9 10 10 10 9 9 11 12 12 12 11 10 7 5 4 3 3 2 3 3 3 4 4 4 5 5 6 6 6 7 7 6 7
4 4 3 4 3 3 3 3 3 3 4 4 9 9 9 10 11 11 11 10 7 9 6 4 3 2 2 3 3 3 5 5 4 5 6 6 6 6 7 7 7 7 6
3 3 2 2 3 3 3 3 3 4 3 4 7 9 9 11 12 11 11 5 4 3 2 3 2 3 3 3 3 4 4 5 5 6 6 6 6 6 7 6 7 8 6
2 3 3 3 3 3 3 3 3 4 4 3 4 4 5 7 5 4 4 2 2 2 2 3 3 3 4 4 4 5 5 6 6 7 7 6 6 6 7 7 6 6 6
3 3 1 2 3 3 3 3 3 3 4 4 3 4 6 4 4 4 3 2 3 3 3 3 4 4 4 4 4 5 5 5 6 6 7 7 7 7 6 6 6 6 6
3 3 3 3 3 3 3 3 3 3 3 3 5 6 9 4 3 3 3 3 3 3 3 3 4 4 4 4 4 5 5 5 6 6 6 6 6 6 5 6 6 5 5
2 2 3 3 3 4 3 3 3 3 3 3 3 4 3 2 2 3 3 2 2 2 3 3 3 4 3 3 4 4 4 5 5 5 5 5 5 5 6 6 6 7 7
2 2 2 2 3 3 4 3 3 6 3 3 3 3 2 2 2 3 2 1 1 1 1 2 3 3 3 3 3 3 3 3 3 4 4 4 5 6 4 5 4 5 7
3 3 3 2 3 3 3 3 3 3 3 2 3 2 2 2 1 2 2 1 1 1 1 1 2 2 3 2 3 4 6 8 4 6 3 3 4 3 3 3 4 6 6
3 3 3 3 3 3 3 3 3 3 3 2 3 3 2 2 1 1 1 2 2 2 2 3 3 3 3 3 3 8 14 11 8 12 6 3 2 2 2 4 5 5 6